owner,sensor,date,latitude,longitude,vertical_datum,wind_speed,wind_to_direction,wind_speed_of_gust,qcFlag 
TCOON,ioos:station:TCOON:003:1,2008-08-12T16:00:00Z,26.8015,-97.4706,0.0,8.5,160.0,9.5,'11111222,11111222,11111222' 
TCOON,ioos:station:TCOON:003:1,2008-08-12T17:00:00Z,26.8015,-97.4706,0.0,8.4,161.0,9.5,'11111222,11111222,11111222' 
TCOON,ioos:station:TCOON:003:1,2008-08-12T18:00:00Z,26.8015,-97.4706,0.0,7.1,160.0,8.2,'11111222,11111222,11111222' 
TCOON,ioos:station:TCOON:003:1,2008-08-12T19:00:00Z,26.8015,-97.4706,0.0,8.2,169.0,9.5,'11111222,11111222,11111222' 
TCOON,ioos:station:TCOON:003:1,2008-08-12T20:00:00Z,26.8015,-97.4706,0.0,9.1,162.0,10.8,'11111222,11111222,11111222' 
TCOON,ioos:station:TCOON:003:1,2008-08-12T21:00:00Z,26.8015,-97.4706,0.0,9.0,162.0,11.0,'11111222,11111222,11111222' 
TCOON,ioos:station:TCOON:003:1,2008-08-12T22:00:00Z,26.8015,-97.4706,0.0,10.5,153.0,11.8,'11111222,11111222,11111222' 
TCOON,ioos:station:TCOON:003:1,2008-08-12T23:00:00Z,26.8015,-97.4706,0.0,10.1,158.0,12.3,'11111222,11111222,11111222' 
TCOON,ioos:station:TCOON:003:1,2008-08-13T00:00:00Z,26.8015,-97.4706,0.0,11.2,158.0,13.0,'11111222,11111222,11111222' 
TCOON,ioos:station:TCOON:003:1,2008-08-13T01:00:00Z,26.8015,-97.4706,0.0,11.2,160.0,13.0,'11111222,11111222,11111222' 
TCOON,ioos:station:TCOON:003:1,2008-08-13T02:00:00Z,26.8015,-97.4706,0.0,9.2,161.0,10.5,'11111222,11111222,11111222' 
TCOON,ioos:station:TCOON:003:1,2008-08-13T03:00:00Z,26.8015,-97.4706,0.0,8.4,174.0,9.5,'11111222,11111222,11111222' 
TCOON,ioos:station:TCOON:003:1,2008-08-13T04:00:00Z,26.8015,-97.4706,0.0,6.8,194.0,7.7,'11111222,11111222,11111222' 
TCOON,ioos:station:TCOON:003:1,2008-08-13T05:00:00Z,26.8015,-97.4706,0.0,6.5,183.0,7.6,'11111222,11111222,11111222' 
TCOON,ioos:station:TCOON:003:1,2008-08-13T07:00:00Z,26.8015,-97.4706,0.0,8.0,183.0,9.7,'11111222,11111222,11111222' 
TCOON,ioos:station:TCOON:003:1,2008-08-13T08:00:00Z,26.8015,-97.4706,0.0,7.7,192.0,8.8,'11111222,11111222,11111222' 
TCOON,ioos:station:TCOON:003:1,2008-08-13T09:00:00Z,26.8015,-97.4706,0.0,5.1,199.0,5.9,'11111222,11111222,11111222' 
TCOON,ioos:station:TCOON:003:1,2008-08-13T10:00:00Z,26.8015,-97.4706,0.0,3.4,215.0,3.9,'11111222,11111222,11111222' 
TCOON,ioos:station:TCOON:003:1,2008-08-13T11:00:00Z,26.8015,-97.4706,0.0,2.0,207.0,2.3,'11111222,11111222,11111222' 
TCOON,ioos:station:TCOON:003:1,2008-08-13T12:00:00Z,26.8015,-97.4706,0.0,3.6,198.0,4.1,'11111222,11111222,11111222' 
TCOON,ioos:station:TCOON:003:1,2008-08-13T13:00:00Z,26.8015,-97.4706,0.0,5.2,190.0,6.1,'11111222,11111222,11111222' 
TCOON,ioos:station:TCOON:003:1,2008-08-13T14:00:00Z,26.8015,-97.4706,0.0,6.6,196.0,8.1,'11111222,11111222,11111222' 
TCOON,ioos:station:TCOON:003:1,2008-08-13T15:00:00Z,26.8015,-97.4706,0.0,5.5,178.0,6.3,'11111222,11111222,11111222' 
TCOON,ioos:station:TCOON:003:1,2008-08-13T16:00:00Z,26.8015,-97.4706,0.0,5.5,152.0,6.4,'11111222,11111222,11111222' 
TCOON,ioos:station:TCOON:003:1,2008-08-13T17:00:00Z,26.8015,-97.4706,0.0,4.5,153.0,5.3,'11111222,11111222,11111222' 
TCOON,ioos:station:TCOON:003:1,2008-08-13T18:00:00Z,26.8015,-97.4706,0.0,5.1,170.0,5.6,'11111222,11111222,11111222' 
TCOON,ioos:station:TCOON:003:1,2008-08-13T19:00:00Z,26.8015,-97.4706,0.0,6.9,145.0,9.1,'11111222,11111222,11111222' 
TCOON,ioos:station:TCOON:003:1,2008-08-13T20:00:00Z,26.8015,-97.4706,0.0,8.5,144.0,9.4,'11111222,11111222,11111222' 
TCOON,ioos:station:TCOON:003:1,2008-08-13T21:00:00Z,26.8015,-97.4706,0.0,8.7,147.0,10.4,'11111222,11111222,11111222' 
TCOON,ioos:station:TCOON:003:1,2008-08-13T22:00:00Z,26.8015,-97.4706,0.0,8.9,141.0,10.0,'11111222,11111222,11111222' 
TCOON,ioos:station:TCOON:003:1,2008-08-13T23:00:00Z,26.8015,-97.4706,0.0,9.2,144.0,10.6,'11111222,11111222,11111222' 
TCOON,ioos:station:TCOON:003:1,2008-08-14T00:00:00Z,26.8015,-97.4706,0.0,9.2,145.0,11.1,'11111222,11111222,11111222' 
TCOON,ioos:station:TCOON:003:1,2008-08-14T01:00:00Z,26.8015,-97.4706,0.0,9.2,176.0,10.2,'11111222,11111222,11111222' 
TCOON,ioos:station:TCOON:003:1,2008-08-14T02:00:00Z,26.8015,-97.4706,0.0,8.1,155.0,9.1,'11111222,11111222,11111222' 
TCOON,ioos:station:TCOON:003:1,2008-08-14T03:00:00Z,26.8015,-97.4706,0.0,8.5,168.0,9.5,'11111222,11111222,11111222' 
TCOON,ioos:station:TCOON:003:1,2008-08-14T04:00:00Z,26.8015,-97.4706,0.0,7.8,172.0,9.0,'11111222,11111222,11111222' 
TCOON,ioos:station:TCOON:003:1,2008-08-14T05:00:00Z,26.8015,-97.4706,0.0,5.4,194.0,6.4,'11111222,11111222,11111222' 
TCOON,ioos:station:TCOON:003:1,2008-08-14T06:00:00Z,26.8015,-97.4706,0.0,7.1,187.0,8.5,'11111222,11111222,11111222' 
TCOON,ioos:station:TCOON:003:1,2008-08-14T07:00:00Z,26.8015,-97.4706,0.0,6.7,183.0,7.7,'11111222,11111222,11111222' 
TCOON,ioos:station:TCOON:003:1,2008-08-14T08:00:00Z,26.8015,-97.4706,0.0,6.7,185.0,8.2,'11111222,11111222,11111222' 
TCOON,ioos:station:TCOON:003:1,2008-08-14T09:00:00Z,26.8015,-97.4706,0.0,6.3,203.0,7.3,'11111222,11111222,11111222' 
TCOON,ioos:station:TCOON:003:1,2008-08-14T10:00:00Z,26.8015,-97.4706,0.0,2.3,214.0,3.0,'11111222,11111222,11111222' 
TCOON,ioos:station:TCOON:003:1,2008-08-14T11:00:00Z,26.8015,-97.4706,0.0,3.7,226.0,4.3,'11111222,11111222,11111222' 
TCOON,ioos:station:TCOON:003:1,2008-08-14T12:00:00Z,26.8015,-97.4706,0.0,3.9,221.0,4.5,'11111222,11111222,11111222' 
TCOON,ioos:station:TCOON:003:1,2008-08-14T13:00:00Z,26.8015,-97.4706,0.0,1.5,148.0,1.8,'11111222,11111222,11111222' 
TCOON,ioos:station:TCOON:003:1,2008-08-14T14:00:00Z,26.8015,-97.4706,0.0,1.2,167.0,1.6,'11111222,11111222,11111222' 
TCOON,ioos:station:TCOON:003:1,2008-08-14T15:00:00Z,26.8015,-97.4706,0.0,3.6,181.0,4.1,'11111222,11111222,11111222' 
TCOON,ioos:station:TCOON:003:1,2008-08-14T16:00:00Z,26.8015,-97.4706,0.0,4.6,182.0,5.1,'11111222,11111222,11111222' 
TCOON,ioos:station:TCOON:003:1,2008-08-14T17:00:00Z,26.8015,-97.4706,0.0,7.0,185.0,7.8,'11111222,11111222,11111222' 
TCOON,ioos:station:TCOON:003:1,2008-08-14T18:00:00Z,26.8015,-97.4706,0.0,2.9,101.0,4.2,'11111222,11111222,11111222' 
TCOON,ioos:station:TCOON:003:1,2008-08-14T19:00:00Z,26.8015,-97.4706,0.0,6.6,127.0,7.6,'11111222,11111222,11111222' 
TCOON,ioos:station:TCOON:003:1,2008-08-14T20:00:00Z,26.8015,-97.4706,0.0,7.3,132.0,8.3,'11111222,11111222,11111222' 
TCOON,ioos:station:TCOON:003:1,2008-08-14T21:00:00Z,26.8015,-97.4706,0.0,7.6,144.0,8.7,'11111222,11111222,11111222' 
TCOON,ioos:station:TCOON:003:1,2008-08-14T22:00:00Z,26.8015,-97.4706,0.0,7.0,142.0,8.2,'11111222,11111222,11111222' 
TCOON,ioos:station:TCOON:003:1,2008-08-14T23:00:00Z,26.8015,-97.4706,0.0,7.4,144.0,8.7,'11111222,11111222,11111222' 
TCOON,ioos:station:TCOON:003:1,2008-08-15T00:00:00Z,26.8015,-97.4706,0.0,7.6,156.0,8.9,'11111222,11111222,11111222' 
TCOON,ioos:station:TCOON:003:1,2008-08-15T01:00:00Z,26.8015,-97.4706,0.0,7.0,160.0,7.8,'11111222,11111222,11111222' 
TCOON,ioos:station:TCOON:003:1,2008-08-15T02:00:00Z,26.8015,-97.4706,0.0,5.7,148.0,6.6,'11111222,11111222,11111222' 
TCOON,ioos:station:TCOON:003:1,2008-08-15T03:00:00Z,26.8015,-97.4706,0.0,6.3,165.0,7.2,'11111222,11111222,11111222' 
TCOON,ioos:station:TCOON:003:1,2008-08-15T04:00:00Z,26.8015,-97.4706,0.0,7.6,170.0,9.2,'11111222,11111222,11111222' 
TCOON,ioos:station:TCOON:003:1,2008-08-15T05:00:00Z,26.8015,-97.4706,0.0,5.8,202.0,7.0,'11111222,11111222,11111222' 
TCOON,ioos:station:TCOON:003:1,2008-08-15T06:00:00Z,26.8015,-97.4706,0.0,4.7,196.0,5.4,'11111222,11111222,11111222' 
TCOON,ioos:station:TCOON:003:1,2008-08-15T07:00:00Z,26.8015,-97.4706,0.0,3.7,199.0,4.3,'11111222,11111222,11111222' 
TCOON,ioos:station:TCOON:003:1,2008-08-15T08:00:00Z,26.8015,-97.4706,0.0,4.6,195.0,5.2,'11111222,11111222,11111222' 
TCOON,ioos:station:TCOON:003:1,2008-08-15T09:00:00Z,26.8015,-97.4706,0.0,3.2,203.0,3.7,'11111222,11111222,11111222' 
TCOON,ioos:station:TCOON:003:1,2008-08-15T10:00:00Z,26.8015,-97.4706,0.0,4.9,198.0,5.5,'11111222,11111222,11111222' 
TCOON,ioos:station:TCOON:003:1,2008-08-15T11:00:00Z,26.8015,-97.4706,0.0,4.0,184.0,4.3,'11111222,11111222,11111222' 
TCOON,ioos:station:TCOON:003:1,2008-08-15T12:00:00Z,26.8015,-97.4706,0.0,4.0,183.0,5.2,'11111222,11111222,11111222' 
TCOON,ioos:station:TCOON:003:1,2008-08-15T13:00:00Z,26.8015,-97.4706,0.0,2.9,154.0,3.1,'11111222,11111222,11111222' 
TCOON,ioos:station:TCOON:003:1,2008-08-15T14:00:00Z,26.8015,-97.4706,0.0,4.2,166.0,4.7,'11111222,11111222,11111222' 
TCOON,ioos:station:TCOON:003:1,2008-08-15T15:00:00Z,26.8015,-97.4706,0.0,5.8,175.0,6.7,'11111222,11111222,11111222' 
TCOON,ioos:station:TCOON:003:1,2008-08-15T16:00:00Z,26.8015,-97.4706,0.0,5.9,168.0,6.9,'11111222,11111222,11111222' 
TCOON,ioos:station:TCOON:003:1,2008-08-15T17:00:00Z,26.8015,-97.4706,0.0,6.3,189.0,6.9,'11111222,11111222,11111222' 
TCOON,ioos:station:TCOON:003:1,2008-08-15T18:00:00Z,26.8015,-97.4706,0.0,7.3,169.0,8.3,'11111222,11111222,11111222' 
TCOON,ioos:station:TCOON:003:1,2008-08-15T19:00:00Z,26.8015,-97.4706,0.0,8.5,143.0,10.2,'11111222,11111222,11111222' 
TCOON,ioos:station:TCOON:003:1,2008-08-15T20:00:00Z,26.8015,-97.4706,0.0,8.3,140.0,9.5,'11111222,11111222,11111222' 
TCOON,ioos:station:TCOON:003:1,2008-08-15T21:00:00Z,26.8015,-97.4706,0.0,7.7,146.0,9.2,'11111222,11111222,11111222' 
TCOON,ioos:station:TCOON:003:1,2008-08-15T22:00:00Z,26.8015,-97.4706,0.0,9.3,138.0,11.2,'11111222,11111222,11111222' 
TCOON,ioos:station:TCOON:003:1,2008-08-15T23:00:00Z,26.8015,-97.4706,0.0,9.2,146.0,11.6,'11111222,11111222,11111222' 
TCOON,ioos:station:TCOON:003:1,2008-08-16T00:00:00Z,26.8015,-97.4706,0.0,8.6,148.0,9.9,'11111222,11111222,11111222' 
TCOON,ioos:station:TCOON:003:1,2008-08-16T01:00:00Z,26.8015,-97.4706,0.0,8.0,143.0,9.2,'11111222,11111222,11111222' 
TCOON,ioos:station:TCOON:003:1,2008-08-16T02:00:00Z,26.8015,-97.4706,0.0,7.1,143.0,8.6,'11111222,11111222,11111222' 
TCOON,ioos:station:TCOON:003:1,2008-08-16T03:00:00Z,26.8015,-97.4706,0.0,7.8,149.0,9.0,'11111222,11111222,11111222' 
TCOON,ioos:station:TCOON:003:1,2008-08-16T04:00:00Z,26.8015,-97.4706,0.0,6.3,144.0,7.4,'11111222,11111222,11111222' 
TCOON,ioos:station:TCOON:003:1,2008-08-16T05:00:00Z,26.8015,-97.4706,0.0,5.5,147.0,6.5,'11111222,11111222,11111222' 
TCOON,ioos:station:TCOON:003:1,2008-08-16T06:00:00Z,26.8015,-97.4706,0.0,4.7,146.0,5.5,'11111222,11111222,11111222' 
TCOON,ioos:station:TCOON:003:1,2008-08-16T07:00:00Z,26.8015,-97.4706,0.0,5.2,162.0,5.8,'11111222,11111222,11111222' 
TCOON,ioos:station:TCOON:003:1,2008-08-16T08:00:00Z,26.8015,-97.4706,0.0,4.2,156.0,5.7,'11111222,11111222,11111222' 
TCOON,ioos:station:TCOON:003:1,2008-08-16T09:00:00Z,26.8015,-97.4706,0.0,4.0,144.0,4.5,'11111222,11111222,11111222' 
TCOON,ioos:station:TCOON:003:1,2008-08-16T10:00:00Z,26.8015,-97.4706,0.0,4.6,158.0,5.4,'11111222,11111222,11111222' 
TCOON,ioos:station:TCOON:003:1,2008-08-16T11:00:00Z,26.8015,-97.4706,0.0,5.3,159.0,5.9,'11111222,11111222,11111222' 
TCOON,ioos:station:TCOON:003:1,2008-08-16T12:00:00Z,26.8015,-97.4706,0.0,4.0,152.0,4.4,'11111222,11111222,11111222' 
TCOON,ioos:station:TCOON:003:1,2008-08-16T13:00:00Z,26.8015,-97.4706,0.0,4.4,168.0,4.8,'11111222,11111222,11111222' 
TCOON,ioos:station:TCOON:003:1,2008-08-16T14:00:00Z,26.8015,-97.4706,0.0,4.1,156.0,4.7,'11111222,11111222,11111222' 
TCOON,ioos:station:TCOON:003:1,2008-08-16T15:00:00Z,26.8015,-97.4706,0.0,4.9,164.0,5.6,'11111222,11111222,11111222' 
TCOON,ioos:station:TCOON:003:1,2008-08-16T16:00:00Z,26.8015,-97.4706,0.0,4.1,159.0,4.6,'11111222,11111222,11111222' 
TCOON,ioos:station:TCOON:003:1,2008-08-16T17:00:00Z,26.8015,-97.4706,0.0,5.8,127.0,6.9,'11111222,11111222,11111222' 
TCOON,ioos:station:TCOON:003:1,2008-08-16T18:00:00Z,26.8015,-97.4706,0.0,7.9,133.0,9.0,'11111222,11111222,11111222' 
TCOON,ioos:station:TCOON:003:1,2008-08-16T19:00:00Z,26.8015,-97.4706,0.0,7.9,208.0,9.3,'11111222,11111222,11111222' 
TCOON,ioos:station:TCOON:003:1,2008-08-16T20:00:00Z,26.8015,-97.4706,0.0,7.2,127.0,8.1,'11111222,11111222,11111222' 
TCOON,ioos:station:TCOON:003:1,2008-08-16T21:00:00Z,26.8015,-97.4706,0.0,6.6,121.0,7.8,'11111222,11111222,11111222' 
TCOON,ioos:station:TCOON:003:1,2008-08-16T22:00:00Z,26.8015,-97.4706,0.0,7.8,124.0,9.0,'11111222,11111222,11111222' 
TCOON,ioos:station:TCOON:003:1,2008-08-16T23:00:00Z,26.8015,-97.4706,0.0,6.8,127.0,8.3,'11111222,11111222,11111222' 
TCOON,ioos:station:TCOON:003:1,2008-08-17T00:00:00Z,26.8015,-97.4706,0.0,6.4,118.0,7.8,'11111222,11111222,11111222' 
TCOON,ioos:station:TCOON:003:1,2008-08-17T01:00:00Z,26.8015,-97.4706,0.0,5.3,108.0,6.5,'11111222,11111222,11111222' 
TCOON,ioos:station:TCOON:003:1,2008-08-17T02:00:00Z,26.8015,-97.4706,0.0,6.4,117.0,7.9,'11111222,11111222,11111222' 
TCOON,ioos:station:TCOON:003:1,2008-08-17T03:00:00Z,26.8015,-97.4706,0.0,5.6,123.0,6.6,'11111222,11111222,11111222' 
TCOON,ioos:station:TCOON:003:1,2008-08-17T04:00:00Z,26.8015,-97.4706,0.0,5.0,130.0,5.9,'11111222,11111222,11111222' 
TCOON,ioos:station:TCOON:003:1,2008-08-17T05:00:00Z,26.8015,-97.4706,0.0,4.9,142.0,5.8,'11111222,11111222,11111222' 
TCOON,ioos:station:TCOON:003:1,2008-08-17T06:00:00Z,26.8015,-97.4706,0.0,4.5,137.0,5.1,'11111222,11111222,11111222' 
TCOON,ioos:station:TCOON:003:1,2008-08-17T07:00:00Z,26.8015,-97.4706,0.0,3.6,147.0,4.3,'11111222,11111222,11111222' 
TCOON,ioos:station:TCOON:003:1,2008-08-17T08:00:00Z,26.8015,-97.4706,0.0,4.5,170.0,5.1,'11111222,11111222,11111222' 
TCOON,ioos:station:TCOON:003:1,2008-08-17T09:00:00Z,26.8015,-97.4706,0.0,4.9,187.0,5.8,'11111222,11111222,11111222' 
TCOON,ioos:station:TCOON:003:1,2008-08-17T10:00:00Z,26.8015,-97.4706,0.0,2.9,208.0,3.5,'11111222,11111222,11111222' 
TCOON,ioos:station:TCOON:003:1,2008-08-17T11:00:00Z,26.8015,-97.4706,0.0,2.2,210.0,2.6,'11111222,11111222,11111222' 
TCOON,ioos:station:TCOON:003:1,2008-08-17T12:00:00Z,26.8015,-97.4706,0.0,3.3,207.0,3.9,'11111222,11111222,11111222' 
TCOON,ioos:station:TCOON:003:1,2008-08-17T13:00:00Z,26.8015,-97.4706,0.0,1.1,199.0,1.5,'11111222,11111222,11111222' 
TCOON,ioos:station:TCOON:003:1,2008-08-17T14:00:00Z,26.8015,-97.4706,0.0,1.1,205.0,1.3,'11111222,11111222,11111222' 
TCOON,ioos:station:TCOON:003:1,2008-08-17T15:00:00Z,26.8015,-97.4706,0.0,2.1,162.0,2.4,'11111222,11111222,11111222' 
TCOON,ioos:station:TCOON:003:1,2008-08-17T16:00:00Z,26.8015,-97.4706,0.0,2.9,93.0,3.6,'11111222,11111222,11111222' 
TCOON,ioos:station:TCOON:003:1,2008-08-17T17:00:00Z,26.8015,-97.4706,0.0,3.6,127.0,4.0,'11111222,11111222,11111222' 
TCOON,ioos:station:TCOON:003:1,2008-08-17T18:00:00Z,26.8015,-97.4706,0.0,4.7,201.0,5.6,'11111222,11111222,11111222' 
TCOON,ioos:station:TCOON:003:1,2008-08-17T19:00:00Z,26.8015,-97.4706,0.0,2.3,137.0,2.6,'11111222,11111222,11111222' 
TCOON,ioos:station:TCOON:003:1,2008-08-17T20:00:00Z,26.8015,-97.4706,0.0,4.0,94.0,4.9,'11111222,11111222,11111222' 
TCOON,ioos:station:TCOON:003:1,2008-08-17T21:00:00Z,26.8015,-97.4706,0.0,6.9,91.0,7.8,'11111222,11111222,11111222' 
TCOON,ioos:station:TCOON:003:1,2008-08-17T22:00:00Z,26.8015,-97.4706,0.0,6.6,106.0,8.1,'11111222,11111222,11111222' 
TCOON,ioos:station:TCOON:003:1,2008-08-17T23:00:00Z,26.8015,-97.4706,0.0,5.8,111.0,7.0,'11111222,11111222,11111222' 
TCOON,ioos:station:TCOON:003:1,2008-08-18T00:00:00Z,26.8015,-97.4706,0.0,5.0,116.0,5.7,'11111222,11111222,11111222' 
TCOON,ioos:station:TCOON:003:1,2008-08-18T01:00:00Z,26.8015,-97.4706,0.0,4.5,117.0,5.5,'11111222,11111222,11111222' 
TCOON,ioos:station:TCOON:003:1,2008-08-18T02:00:00Z,26.8015,-97.4706,0.0,4.6,125.0,5.5,'11111222,11111222,11111222' 
TCOON,ioos:station:TCOON:003:1,2008-08-18T03:00:00Z,26.8015,-97.4706,0.0,4.0,132.0,4.7,'11111222,11111222,11111222' 
TCOON,ioos:station:TCOON:003:1,2008-08-18T04:00:00Z,26.8015,-97.4706,0.0,4.5,151.0,5.0,'11111222,11111222,11111222' 
TCOON,ioos:station:TCOON:003:1,2008-08-18T05:00:00Z,26.8015,-97.4706,0.0,6.0,156.0,6.9,'11111222,11111222,11111222' 
TCOON,ioos:station:TCOON:003:1,2008-08-18T06:00:00Z,26.8015,-97.4706,0.0,5.1,154.0,5.9,'11111222,11111222,11111222' 
TCOON,ioos:station:TCOON:003:1,2008-08-18T07:00:00Z,26.8015,-97.4706,0.0,4.9,164.0,5.8,'11111222,11111222,11111222' 
TCOON,ioos:station:TCOON:003:1,2008-08-18T08:00:00Z,26.8015,-97.4706,0.0,3.5,143.0,4.2,'11111222,11111222,11111222' 
TCOON,ioos:station:TCOON:003:1,2008-08-18T09:00:00Z,26.8015,-97.4706,0.0,3.0,140.0,3.7,'11111222,11111222,11111222' 
TCOON,ioos:station:TCOON:003:1,2008-08-18T10:00:00Z,26.8015,-97.4706,0.0,6.7,184.0,8.0,'11111222,11111222,11111222' 
TCOON,ioos:station:TCOON:003:1,2008-08-18T11:00:00Z,26.8015,-97.4706,0.0,4.8,151.0,5.5,'11111222,11111222,11111222' 
TCOON,ioos:station:TCOON:003:1,2008-08-18T12:00:00Z,26.8015,-97.4706,0.0,3.8,147.0,4.2,'11111222,11111222,11111222' 
TCOON,ioos:station:TCOON:003:1,2008-08-18T13:00:00Z,26.8015,-97.4706,0.0,4.5,153.0,5.4,'11111222,11111222,11111222' 
TCOON,ioos:station:TCOON:003:1,2008-08-18T14:00:00Z,26.8015,-97.4706,0.0,5.9,161.0,6.5,'11111222,11111222,11111222' 
TCOON,ioos:station:TCOON:003:1,2008-08-18T15:00:00Z,26.8015,-97.4706,0.0,4.9,177.0,5.6,'11111222,11111222,11111222' 
TCOON,ioos:station:TCOON:003:1,2008-08-18T16:00:00Z,26.8015,-97.4706,0.0,6.0,172.0,6.9,'11111222,11111222,11111222' 
TCOON,ioos:station:TCOON:003:1,2008-08-18T17:00:00Z,26.8015,-97.4706,0.0,7.1,168.0,8.0,'11111222,11111222,11111222' 
TCOON,ioos:station:TCOON:003:1,2008-08-18T18:00:00Z,26.8015,-97.4706,0.0,6.7,256.0,8.4,'11111222,11111222,11111222' 
TCOON,ioos:station:TCOON:003:1,2008-08-18T19:00:00Z,26.8015,-97.4706,0.0,4.5,153.0,5.1,'11111222,11111222,11111222' 
TCOON,ioos:station:TCOON:003:1,2008-08-18T20:00:00Z,26.8015,-97.4706,0.0,7.4,196.0,9.8,'11111222,11111222,11111222' 
TCOON,ioos:station:TCOON:003:1,2008-08-18T21:00:00Z,26.8015,-97.4706,0.0,4.7,138.0,5.4,'11111222,11111222,11111222' 
TCOON,ioos:station:TCOON:003:1,2008-08-18T22:00:00Z,26.8015,-97.4706,0.0,6.2,128.0,7.2,'11111222,11111222,11111222' 
TCOON,ioos:station:TCOON:003:1,2008-08-18T23:00:00Z,26.8015,-97.4706,0.0,4.7,133.0,5.4,'11111222,11111222,11111222' 
TCOON,ioos:station:TCOON:003:1,2008-08-19T00:00:00Z,26.8015,-97.4706,0.0,6.2,141.0,7.1,'11111222,11111222,11111222' 
TCOON,ioos:station:TCOON:003:1,2008-08-19T01:00:00Z,26.8015,-97.4706,0.0,6.8,144.0,7.9,'11111222,11111222,11111222' 
TCOON,ioos:station:TCOON:003:1,2008-08-19T02:00:00Z,26.8015,-97.4706,0.0,6.5,143.0,7.4,'11111222,11111222,11111222' 
TCOON,ioos:station:TCOON:003:1,2008-08-19T03:00:00Z,26.8015,-97.4706,0.0,5.3,158.0,6.3,'11111222,11111222,11111222' 
TCOON,ioos:station:TCOON:003:1,2008-08-19T04:00:00Z,26.8015,-97.4706,0.0,6.7,190.0,7.9,'11111222,11111222,11111222' 
TCOON,ioos:station:TCOON:003:1,2008-08-19T05:00:00Z,26.8015,-97.4706,0.0,7.0,214.0,8.9,'11111222,11111222,11111222' 
TCOON,ioos:station:TCOON:003:1,2008-08-19T06:00:00Z,26.8015,-97.4706,0.0,4.9,210.0,5.6,'11111222,11111222,11111222' 
TCOON,ioos:station:TCOON:003:1,2008-08-19T07:00:00Z,26.8015,-97.4706,0.0,3.7,199.0,4.2,'11111222,11111222,11111222' 
TCOON,ioos:station:TCOON:003:1,2008-08-19T08:00:00Z,26.8015,-97.4706,0.0,2.5,227.0,3.2,'11111222,11111222,11111222' 
TCOON,ioos:station:TCOON:003:1,2008-08-19T09:00:00Z,26.8015,-97.4706,0.0,3.5,202.0,4.1,'11111222,11111222,11111222' 
TCOON,ioos:station:TCOON:003:1,2008-08-19T10:00:00Z,26.8015,-97.4706,0.0,4.3,207.0,5.1,'11111222,11111222,11111222' 
TCOON,ioos:station:TCOON:003:1,2008-08-19T11:00:00Z,26.8015,-97.4706,0.0,2.5,313.0,3.2,'11111222,11111222,11111222' 
TCOON,ioos:station:TCOON:003:1,2008-08-19T12:00:00Z,26.8015,-97.4706,0.0,1.2,287.0,1.5,'11111222,11111222,11111222' 
TCOON,ioos:station:TCOON:003:1,2008-08-19T13:00:00Z,26.8015,-97.4706,0.0,0.7,186.0,1.0,'11111222,11111222,11111222' 
TCOON,ioos:station:TCOON:003:1,2008-08-19T14:00:00Z,26.8015,-97.4706,0.0,1.3,128.0,1.4,'11111222,11111222,11111222' 
TCOON,ioos:station:TCOON:003:1,2008-08-19T15:00:00Z,26.8015,-97.4706,0.0,2.1,259.0,2.4,'11111222,11111222,11111222' 
TCOON,ioos:station:TCOON:003:1,2008-08-19T16:00:00Z,26.8015,-97.4706,0.0,1.9,345.0,2.0,'11111222,11111222,11111222' 
TCOON,ioos:station:TCOON:003:1,2008-08-19T17:00:00Z,26.8015,-97.4706,0.0,0.3,216.0,0.7,'11111222,11111222,11111222' 
TCOON,ioos:station:TCOON:003:1,2008-08-19T18:00:00Z,26.8015,-97.4706,0.0,3.2,266.0,4.1,'11111222,11111222,11111222' 
TCOON,ioos:station:TCOON:003:1,2008-08-19T19:00:00Z,26.8015,-97.4706,0.0,8.0,96.0,10.0,'11111222,11111222,11111222' 
TCOON,ioos:station:TCOON:003:1,2008-08-19T20:00:00Z,26.8015,-97.4706,0.0,5.2,157.0,6.0,'11111222,11111222,11111222' 
TCOON,ioos:station:TCOON:003:1,2008-08-19T21:00:00Z,26.8015,-97.4706,0.0,7.4,170.0,8.4,'11111222,11111222,11111222' 
TCOON,ioos:station:TCOON:003:1,2008-08-19T22:00:00Z,26.8015,-97.4706,0.0,6.7,174.0,7.4,'11111222,11111222,11111222' 
TCOON,ioos:station:TCOON:003:1,2008-08-19T23:00:00Z,26.8015,-97.4706,0.0,4.7,177.0,5.3,'11111222,11111222,11111222' 
TCOON,ioos:station:TCOON:003:1,2008-08-20T00:00:00Z,26.8015,-97.4706,0.0,5.4,177.0,5.9,'11111222,11111222,11111222' 
TCOON,ioos:station:TCOON:003:1,2008-08-20T01:00:00Z,26.8015,-97.4706,0.0,5.3,157.0,6.3,'11111222,11111222,11111222' 
TCOON,ioos:station:TCOON:003:1,2008-08-20T02:00:00Z,26.8015,-97.4706,0.0,6.1,158.0,7.0,'11111222,11111222,11111222' 
TCOON,ioos:station:TCOON:003:1,2008-08-20T03:00:00Z,26.8015,-97.4706,0.0,5.6,184.0,6.4,'11111222,11111222,11111222' 
TCOON,ioos:station:TCOON:003:1,2008-08-20T04:00:00Z,26.8015,-97.4706,0.0,3.2,201.0,3.8,'11111222,11111222,11111222' 
TCOON,ioos:station:TCOON:003:1,2008-08-20T05:00:00Z,26.8015,-97.4706,0.0,4.0,191.0,4.7,'11111222,11111222,11111222' 
TCOON,ioos:station:TCOON:003:1,2008-08-20T06:00:00Z,26.8015,-97.4706,0.0,6.3,191.0,7.0,'11111222,11111222,11111222' 
TCOON,ioos:station:TCOON:003:1,2008-08-20T07:00:00Z,26.8015,-97.4706,0.0,3.1,204.0,3.6,'11111222,11111222,11111222' 
TCOON,ioos:station:TCOON:003:1,2008-08-20T08:00:00Z,26.8015,-97.4706,0.0,4.0,191.0,4.5,'11111222,11111222,11111222' 
TCOON,ioos:station:TCOON:003:1,2008-08-20T09:00:00Z,26.8015,-97.4706,0.0,3.6,199.0,4.2,'11111222,11111222,11111222' 
TCOON,ioos:station:TCOON:003:1,2008-08-20T10:00:00Z,26.8015,-97.4706,0.0,1.9,221.0,2.2,'11111222,11111222,11111222' 
TCOON,ioos:station:TCOON:003:1,2008-08-20T11:00:00Z,26.8015,-97.4706,0.0,1.1,228.0,1.3,'11111222,11111222,11111222' 
TCOON,ioos:station:TCOON:003:1,2008-08-20T12:00:00Z,26.8015,-97.4706,0.0,1.7,189.0,2.0,'11111222,11111222,11111222' 
TCOON,ioos:station:TCOON:003:1,2008-08-20T13:00:00Z,26.8015,-97.4706,0.0,2.5,172.0,2.9,'11111222,11111222,11111222' 
TCOON,ioos:station:TCOON:003:1,2008-08-20T14:00:00Z,26.8015,-97.4706,0.0,4.0,173.0,4.6,'11111222,11111222,11111222' 
TCOON,ioos:station:TCOON:003:1,2008-08-20T15:00:00Z,26.8015,-97.4706,0.0,4.9,166.0,6.2,'11111222,11111222,11111222' 
TCOON,ioos:station:TCOON:003:1,2008-08-20T16:00:00Z,26.8015,-97.4706,0.0,5.9,205.0,7.0,'11111222,11111222,11111222' 
TCOON,ioos:station:TCOON:003:1,2008-08-20T17:00:00Z,26.8015,-97.4706,0.0,7.3,171.0,8.4,'11111222,11111222,11111222' 
TCOON,ioos:station:TCOON:003:1,2008-08-20T18:00:00Z,26.8015,-97.4706,0.0,6.9,163.0,7.9,'11111222,11111222,11111222' 
TCOON,ioos:station:TCOON:003:1,2008-08-20T19:00:00Z,26.8015,-97.4706,0.0,7.9,169.0,8.8,'11111222,11111222,11111222' 
TCOON,ioos:station:TCOON:003:1,2008-08-20T20:00:00Z,26.8015,-97.4706,0.0,10.0,173.0,11.2,'11111222,11111222,11111222' 
TCOON,ioos:station:TCOON:003:1,2008-08-20T21:00:00Z,26.8015,-97.4706,0.0,9.1,169.0,10.2,'11111222,11111222,11111222' 
TCOON,ioos:station:TCOON:003:1,2008-08-20T22:00:00Z,26.8015,-97.4706,0.0,8.7,163.0,10.0,'11111222,11111222,11111222' 
TCOON,ioos:station:TCOON:003:1,2008-08-20T23:00:00Z,26.8015,-97.4706,0.0,8.8,154.0,10.4,'11111222,11111222,11111222' 
TCOON,ioos:station:TCOON:003:1,2008-08-21T00:00:00Z,26.8015,-97.4706,0.0,8.8,151.0,10.5,'11111222,11111222,11111222' 
TCOON,ioos:station:TCOON:003:1,2008-08-21T01:00:00Z,26.8015,-97.4706,0.0,9.0,161.0,10.7,'11111222,11111222,11111222' 
TCOON,ioos:station:TCOON:003:1,2008-08-21T02:00:00Z,26.8015,-97.4706,0.0,9.2,172.0,11.7,'11111222,11111222,11111222' 
TCOON,ioos:station:TCOON:003:1,2008-08-21T03:00:00Z,26.8015,-97.4706,0.0,9.9,182.0,11.5,'11111222,11111222,11111222' 